• In United Kingdom
  • List of Countries
  • For 7 days
  • Water Temperature
  • Satellite Maps
  • Weather Map
  • Weather Widgets
  • user-avatar
    Login

    Hourly Weather Jelonek

    Today, 24 October, Wednesday

    Time Temperature Precipitation Wind Pressure Humidity
    00:00 +7°C° 0.2 mm 9 mps 741 mmHg 74%
    01:00 +7°C° 0.2 mm 9 mps 741 mmHg 72%
    02:00 +6°C° 0.1 mm 9 mps 741 mmHg 71%
    03:00 +6°C° 0.1 mm 9 mps 742 mmHg 69%
    04:00 +5°C° 0.1 mm 9 mps 742 mmHg 67%
    05:00 +5°C° 0 mm 8 mps 743 mmHg 67%
    06:00 +4°C° 0 mm 7 mps 743 mmHg 67%
    07:00 +4°C° 0 mm 7 mps 744 mmHg 67%
    08:00 +5°C° 0 mm 8 mps 745 mmHg 60%
    09:00 +5°C° 0 mm 9 mps 745 mmHg 53%
    10:00 +6°C° 0 mm 10 mps 746 mmHg 47%
    11:00 +7°C° 0 mm 10 mps 747 mmHg 45%
    12:00 +7°C° 0 mm 10 mps 747 mmHg 42%
    13:00 +8°C° 0 mm 10 mps 748 mmHg 40%
    14:00 +7°C° 0 mm 9 mps 748 mmHg 42%
    15:00 +8°C° 0 mm 7 mps 749 mmHg 45%
    16:00 +7°C° 0 mm 6 mps 749 mmHg 47%
    17:00 +7°C° 0 mm 6 mps 750 mmHg 50%
    18:00 +5°C° 0 mm 6 mps 750 mmHg 54%
    19:00 +5°C° 0 mm 5 mps 751 mmHg 58%
    20:00 +5°C° 0 mm 5 mps 751 mmHg 61%
    21:00 +5°C° 0 mm 5 mps 751 mmHg 64%
    22:00 +3°C° 0 mm 5 mps 751 mmHg 67%
    23:00 +3°C° 0 mm 5 mps 751 mmHg 69%

    Tomorrow, 25 October, Thursday

    Time Temperature Precipitation Wind Pressure Humidity
    00:00 +3°C° 0 mm 5 mps 751 mmHg 71%
    01:00 +4°C° 0 mm 4 mps 750 mmHg 73%
    02:00 +3°C° 0.3 mm 5 mps 750 mmHg 77%
    03:00 +5°C° 0.3 mm 5 mps 749 mmHg 81%
    04:00 +5°C° 0.3 mm 5 mps 748 mmHg 85%
    05:00 +5°C° 0.7 mm 6 mps 747 mmHg 86%
    06:00 +8°C° 0.7 mm 7 mps 746 mmHg 87%
    07:00 +9°C° 0.7 mm 8 mps 746 mmHg 88%
    08:00 +9°C° 0.2 mm 8 mps 745 mmHg 86%
    09:00 +10°C° 0.2 mm 9 mps 745 mmHg 85%
    10:00 +10°C° 0.2 mm 9 mps 745 mmHg 83%
    11:00 +10°C° 0.2 mm 9 mps 745 mmHg 82%
    12:00 +10°C° 0.2 mm 9 mps 745 mmHg 80%
    13:00 +9°C° 0.2 mm 10 mps 745 mmHg 78%
    14:00 +10°C° 0.1 mm 9 mps 745 mmHg 76%
    15:00 +8°C° 0.1 mm 9 mps 745 mmHg 73%
    16:00 +8°C° 0.1 mm 9 mps 746 mmHg 70%
    17:00 +7°C° 0 mm 8 mps 746 mmHg 72%
    18:00 +8°C° 0 mm 7 mps 746 mmHg 73%
    19:00 +7°C° 0 mm 6 mps 746 mmHg 75%
    20:00 +7°C° 0 mm 6 mps 747 mmHg 77%
    21:00 +7°C° 0 mm 6 mps 747 mmHg 78%
    22:00 +6°C° 0 mm 5 mps 747 mmHg 80%
    23:00 +6°C° 0 mm 5 mps 747 mmHg 81%

    Day after tomorrow, 26 October, Friday

    Time Temperature Precipitation Wind Pressure Humidity
    00:00 +6°C° 0 mm 5 mps 747 mmHg 82%
    01:00 +6°C° 0 mm 5 mps 747 mmHg 83%
    02:00 +6°C° 0 mm 5 mps 747 mmHg 83%
    03:00 +6°C° 0 mm 5 mps 747 mmHg 83%
    04:00 +6°C° 0 mm 5 mps 747 mmHg 83%
    05:00 +5°C° 0 mm 5 mps 747 mmHg 84%
    06:00 +5°C° 0 mm 4 mps 746 mmHg 85%
    07:00 +5°C° 0 mm 4 mps 746 mmHg 85%
    08:00 +6°C° 0 mm 4 mps 746 mmHg 83%
    09:00 +7°C° 0 mm 5 mps 746 mmHg 80%
    10:00 +9°C° 0 mm 5 mps 746 mmHg 77%
    11:00 +9°C° 0.4 mm 5 mps 745 mmHg 79%
    12:00 +9°C° 0.4 mm 5 mps 745 mmHg 81%
    13:00 +10°C° 0.4 mm 6 mps 744 mmHg 83%
    14:00 +10°C° 0.2 mm 6 mps 744 mmHg 82%
    15:00 +10°C° 0.2 mm 5 mps 743 mmHg 80%
    16:00 +10°C° 0.2 mm 5 mps 742 mmHg 79%
    17:00 +10°C° 0.1 mm 6 mps 742 mmHg 78%
    18:00 +10°C° 0.1 mm 6 mps 742 mmHg 78%
    19:00 +9°C° 0.1 mm 7 mps 741 mmHg 78%
    20:00 +9°C° 0.1 mm 7 mps 741 mmHg 78%
    21:00 +9°C° 0.1 mm 7 mps 741 mmHg 77%
    22:00 +7°C° 0.1 mm 8 mps 741 mmHg 77%
    23:00 +6°C° 0 mm 8 mps 741 mmHg 76%

    27 October, Saturday

    Time Temperature Precipitation Wind Pressure Humidity
    00:00 +6°C° 0 mm 7 mps 741 mmHg 74%
    01:00 +5°C° 0 mm 7 mps 742 mmHg 73%
    02:00 +5°C° 0 mm 8 mps 742 mmHg 73%
    03:00 +5°C° 0 mm 8 mps 742 mmHg 73%
    04:00 +5°C° 0 mm 9 mps 743 mmHg 73%
    05:00 +5°C° 0 mm 8 mps 743 mmHg 74%
    06:00 +4°C° 0 mm 8 mps 744 mmHg 75%
    07:00 +4°C° 0 mm 7 mps 744 mmHg 75%
    08:00 +4°C° 0 mm 7 mps 745 mmHg 74%
    09:00 +5°C° 0 mm 7 mps 746 mmHg 72%
    10:00 +5°C° 0 mm 6 mps 747 mmHg 70%
    11:00 +5°C° 0 mm 6 mps 747 mmHg 67%
    12:00 +7°C° 0 mm 5 mps 747 mmHg 64%
    13:00 +7°C° 0 mm 5 mps 748 mmHg 62%
    14:00 +7°C° 0 mm 4 mps 748 mmHg 63%
    15:00 +8°C° 0 mm 3 mps 748 mmHg 64%
    16:00 +7°C° 0 mm 2 mps 748 mmHg 66%
    17:00 +8°C° 0 mm 1 mps 749 mmHg 68%
    18:00 +7°C° 0 mm 1 mps 749 mmHg 70%
    19:00 +7°C° 0 mm 1 mps 750 mmHg 72%
    20:00 +7°C° 0 mm 1 mps 750 mmHg 73%
    21:00 +7°C° 0 mm 1 mps 750 mmHg 73%
    22:00 +6°C° 0 mm 1 mps 750 mmHg 74%
    23:00 +6°C° 0 mm 1 mps 750 mmHg 75%

    28 October, Sunday

    Time Temperature Precipitation Wind Pressure Humidity
    00:00 +6°C° 0 mm 1 mps 751 mmHg 75%
    01:00 +6°C° 0 mm 1 mps 751 mmHg 76%
    02:00 +6°C° 0 mm 1 mps 751 mmHg 77%
    03:00 +6°C° 0 mm 1 mps 751 mmHg 77%
    04:00 +5°C° 0 mm 1 mps 751 mmHg 78%
    05:00 +4°C° 0 mm 2 mps 751 mmHg 78%
    06:00 +4°C° 0 mm 2 mps 752 mmHg 79%
    07:00 +4°C° 0 mm 2 mps 752 mmHg 79%
    08:00 +5°C° 0 mm 2 mps 752 mmHg 75%
    09:00 +5°C° 0 mm 3 mps 752 mmHg 72%
    10:00 +7°C° 0 mm 3 mps 753 mmHg 68%
    11:00 +7°C° 0.1 mm 3 mps 753 mmHg 67%
    12:00 +6°C° 0.1 mm 4 mps 753 mmHg 67%
    13:00 +6°C° 0.1 mm 4 mps 753 mmHg 67%
    14:00 +6°C° 0.2 mm 4 mps 753 mmHg 68%
    15:00 +5°C° 0.2 mm 4 mps 753 mmHg 69%
    16:00 +5°C° 0.2 mm 4 mps 753 mmHg 70%
    17:00 +5°C° 0.1 mm 4 mps 753 mmHg 71%
    18:00 +4°C° 0.1 mm 4 mps 753 mmHg 71%
    19:00 +4°C° 0.1 mm 4 mps 754 mmHg 72%
    20:00 +3°C° 0 mm 5 mps 754 mmHg 73%
    21:00 +3°C° 0 mm 5 mps 754 mmHg 73%
    22:00 +3°C° 0 mm 5 mps 754 mmHg 74%
    23:00 +2°C° 0 mm 5 mps 754 mmHg 75%

    29 October, Monday

    Time Temperature Precipitation Wind Pressure Humidity
    00:00 +2°C° 0 mm 5 mps 753 mmHg 76%
    01:00 +2°C° 0 mm 6 mps 753 mmHg 77%
    02:00 +2°C° 0.1 mm 6 mps 753 mmHg 76%
    03:00 +2°C° 0.1 mm 6 mps 753 mmHg 76%
    04:00 +2°C° 0.1 mm 7 mps 752 mmHg 76%
    05:00 +2°C° 0.3 mm 7 mps 752 mmHg 76%
    06:00 +2°C° 0.3 mm 7 mps 752 mmHg 76%
    07:00 +2°C° 0.3 mm 7 mps 752 mmHg 76%
    08:00 +2°C° 0.3 mm 7 mps 752 mmHg 75%
    09:00 +2°C° 0.3 mm 8 mps 752 mmHg 74%
    10:00 +2°C° 0.3 mm 8 mps 752 mmHg 74%
    11:00 +2°C° 0.3 mm 8 mps 752 mmHg 73%
    12:00 +2°C° 0.3 mm 8 mps 752 mmHg 72%
    13:00 +2°C° 0.3 mm 8 mps 752 mmHg 72%
    14:00 +2°C° 0.2 mm 8 mps 752 mmHg 72%
    15:00 +2°C° 0.2 mm 8 mps 752 mmHg 72%
    16:00 +3°C° 0.2 mm 7 mps 752 mmHg 73%
    17:00 +2°C° 0 mm 7 mps 752 mmHg 73%
    18:00 +2°C° 0 mm 7 mps 752 mmHg 74%
    19:00 +2°C° 0 mm 7 mps 753 mmHg 74%
    20:00 +2°C° 0 mm 7 mps 753 mmHg 74%
    21:00 +2°C° 0 mm 7 mps 753 mmHg 74%
    22:00 0°C° 0 mm 7 mps 754 mmHg 74%
    23:00 0°C° 0 mm 7 mps 754 mmHg 75%
    Show more